Hourly Data Report for October 04, 2017

All times are specified in Local Standard Time (LST). Add 1 hour to adjust for Daylight Saving Time where and when it is observed.

RESOLUTE BAY A
NUNAVUT

74°43'01.000" N
94°58'10.000" W
67.70 m
2403498
71924
YRB

Download Data

Hourly Data (October 2017)
Hourly Data Report for October 4, 2017
Temp Definition
°C
Dew Point Temp Definition
°C
Rel Hum Definition
%
Wind Dir Definition
10's deg

Wind Spd Definition
km/h
Visibility Definition
km
Stn Press Definition
kPa
Hmdx Definition


Wind Chill Definition


Weather Definition


TIME
00:00 Legend Double Dagger -7.9 -9.7 87 1 64 0.8 99.12   -20 Blowing Snow
01:00 Legend Double Dagger -7.8 -9.6 87 1 66 0.8 99.16   -20 Blowing Snow
02:00 Legend Double Dagger -7.9 -10.0 85 1 65 0.8 99.20   -20 Blowing Snow
03:00 Legend Double Dagger -7.8 -9.9 85 1 63 0.8 99.25   -20 Blowing Snow
04:00 Legend Double Dagger -7.6 -9.8 84 2 59 2.4 99.28   -19 Blowing Snow
05:00 Legend Double Dagger -7.6 -9.8 84 2 60 2.4 99.29   -19 Blowing Snow
06:00 Legend Double Dagger -7.3 -9.5 84 2 67 2.8 99.26   -19 Blowing Snow
07:00 Legend Double Dagger -7.2 -9.9 81 2 65 4.8 99.28   -19 Blowing Snow
08:00 Legend Double Dagger -8.3 -10.4 85 2 69 4.8 99.30   -21 Blowing Snow
09:00 Legend Double Dagger -8.4 -10.6 84 2 60 16.1 99.33   -20 Blowing Snow
10:00 Legend Double Dagger -8.4 -10.7 83 1 62 14.5 99.30   -21 Blowing Snow
11:00 Legend Double Dagger -8.5 -10.8 84 1 56 16.1 99.27   -20 Blowing Snow
12:00 Legend Double Dagger -8.6 -10.8 84 35 47 16.1 99.26   -20 Blowing Snow
13:00 Legend Double Dagger -8.4 -10.6 84 35 46 24.1 99.20   -19 Blowing Snow
14:00 Legend Double Dagger -7.8 -9.9 85 36 58 16.1 99.23   -19 Blowing Snow
15:00 Legend Double Dagger -7.9 -9.9 85 2 63 16.1 99.16   -20 Blowing Snow
16:00 Legend Double Dagger -7.7 -9.8 85 2 72 6.4 99.14   -20 Blowing Snow
17:00 Legend Double Dagger -7.9 -9.8 86 3 70 3.2 99.11   -20 Blowing Snow
18:00 Legend Double Dagger -7.9 -9.9 86 2 74 4.0 99.16   -21 Blowing Snow
19:00 Legend Double Dagger -7.7 -9.9 84 3 67 4.0 99.22   -20 Blowing Snow
20:00 Legend Double Dagger -7.8 -9.8 85 2 68 4.0 99.22   -20 Blowing Snow
21:00 Legend Double Dagger -7.6 -9.6 86 2 68 4.0 99.24   -20 Blowing Snow
22:00 Legend Double Dagger -7.4 -9.5 85 2 61 4.8 99.26   -19 Blowing Snow
23:00 Legend Double Dagger -7.3 -9.4 85 2 67 4.8 99.24   -19 Blowing Snow

Notes on Data Quality.

Legend

  • E = Estimated
  • M = Missing
  • NA = Not Available
  • ‡ = Partner data that is not subject to review by the National Climate Archives
Date modified: